Location: Bonneuil
(46.1010°N, 2.9693°E)
Time: 23:48:04
(UTC+00:00)

Cosmos 1340 Rocket - Pass Details

Date: 09 April 2020
Orbit: 529 x 559 km, 81.2° (Epoch: 02 June)

Event Time Altitude Azimuth Distance (km) Brightness Sun altitude
Rises 19:03:59 0° 168° (SSE) 2,726 6.1 -6.9°
Reaches altitude 10° 19:06:16 10° 159° (SSE) 1,833 5.1 -7.2°
Maximum altitude 19:09:57 35° 94° (E) 914 3.5 -7.8°
Drops below altitude 10° 19:13:38 10° 28° (NNE) 1,833 5.4 -8.4°
Sets 19:15:55 0° 20° (NNE) 2,726 6.4 -8.8°
